17.05.2024;10:00;4
17.05.2024;09:00;4
17.05.2024;08:00;4
17.05.2024;07:00;6
17.05.2024;06:00;5
17.05.2024;05:00;4
17.05.2024;04:00;4
17.05.2024;03:00;3
17.05.2024;02:00;2
17.05.2024;01:00;2
16.05.2024;24:00;3
16.05.2024;23:00;3
16.05.2024;22:00;6
16.05.2024;21:00;6
16.05.2024;20:00;13
16.05.2024;19:00;10
16.05.2024;18:00;14
16.05.2024;17:00;9
16.05.2024;16:00;9
16.05.2024;15:00;7
16.05.2024;14:00;4
16.05.2024;13:00;3
16.05.2024;12:00;4
16.05.2024;11:00;3
16.05.2024;10:00;5
16.05.2024;09:00;10
16.05.2024;08:00;11
16.05.2024;07:00;7
16.05.2024;06:00;6
16.05.2024;05:00;6
16.05.2024;04:00;7
16.05.2024;03:00;9
16.05.2024;02:00;4
16.05.2024;01:00;3
15.05.2024;24:00;5
15.05.2024;23:00;8
15.05.2024;22:00;10
15.05.2024;21:00;11
15.05.2024;20:00;10
15.05.2024;19:00;11
15.05.2024;18:00;15
15.05.2024;17:00;15
15.05.2024;16:00;20
15.05.2024;15:00;20
15.05.2024;14:00;13
15.05.2024;13:00;12
15.05.2024;12:00;9
15.05.2024;11:00;8
15.05.2024;10:00;7
15.05.2024;09:00;6
15.05.2024;08:00;3
15.05.2024;07:00;3
15.05.2024;06:00;3
15.05.2024;05:00;3
15.05.2024;04:00;3
15.05.2024;03:00;3
15.05.2024;02:00;3
15.05.2024;01:00;4
14.05.2024;24:00;7
14.05.2024;23:00;8
14.05.2024;22:00;9
14.05.2024;21:00;13
14.05.2024;20:00;14
14.05.2024;19:00;14
14.05.2024;18:00;11
14.05.2024;17:00;11
14.05.2024;16:00;12
14.05.2024;15:00;10
14.05.2024;14:00;11
14.05.2024;13:00;10
14.05.2024;12:00;8
14.05.2024;11:00;7
14.05.2024;10:00;8
14.05.2024;09:00;10
14.05.2024;08:00;11
14.05.2024;07:00;11
14.05.2024;06:00;8
14.05.2024;05:00;6
14.05.2024;04:00;6
14.05.2024;03:00;6
14.05.2024;02:00;5
14.05.2024;01:00;3
13.05.2024;24:00;3
13.05.2024;23:00;5
13.05.2024;22:00;8
13.05.2024;21:00;8
13.05.2024;20:00;7
13.05.2024;19:00;3
13.05.2024;18:00;4
13.05.2024;17:00;4
13.05.2024;16:00;5
13.05.2024;15:00;5
13.05.2024;14:00;6
13.05.2024;13:00;7
13.05.2024;12:00;8
13.05.2024;11:00;7
13.05.2024;10:00;8
13.05.2024;09:00;10
13.05.2024;08:00;13
13.05.2024;07:00;16
13.05.2024;06:00;15
13.05.2024;05:00;13
13.05.2024;04:00;12
13.05.2024;03:00;8
13.05.2024;02:00;8
13.05.2024;01:00;9
12.05.2024;24:00;9
12.05.2024;23:00;10
12.05.2024;22:00;10
12.05.2024;21:00;13
12.05.2024;20:00;10
12.05.2024;19:00;11
12.05.2024;18:00;12
12.05.2024;17:00;10
12.05.2024;16:00;11
12.05.2024;15:00;10
12.05.2024;14:00;9
12.05.2024;13:00;10
12.05.2024;12:00;10
12.05.2024;11:00;10
12.05.2024;10:00;8
12.05.2024;09:00;9
12.05.2024;08:00;10
12.05.2024;07:00;12
12.05.2024;06:00;15
12.05.2024;05:00;17
12.05.2024;04:00;14
12.05.2024;03:00;12
12.05.2024;02:00;10
12.05.2024;01:00;13
